Provo, UT

8:35 PM MDT on March 24, 2017 (GMT -0600)
Provo Municipal

Weather History for KPVU - September, 2012

Change the Weather History Date:

Monday, September 24, 2012

  Actual Average Record
Temperature  
Mean Temperature 62 °F -  
Max Temperature 69 °F 72 °F 89 °F (2001)
Min Temperature 53 °F 44 °F 33 °F (2000)
Degree Days  
Heating Degree Days 3    
Growing Degree Days 12 (Base 50)    
Moisture  
Dew Point 49 °F    
Average Humidity 61    
Maximum Humidity 82    
Minimum Humidity 40    
Precipitation  
Precipitation 0.00 in - - ()
Sea Level Pressure  
Sea Level Pressure 30.08 in    
Wind  
Wind Speed 7 mph (West)    
Max Wind Speed 15 mph    
Max Gust Speed 22 mph    
Visibility 12 miles    
Events      
Averages and records for this station are not official NWS values.
T = Trace of Precipitation, MM = Missing Value Source: NWS Daily Summary

Daily Weather History Graph

Daily Weather History Graph

Search for Another Location

Airport or City:

Trip Planner

Search our weather history database for the weather conditions in past years. The results will help you decide how hot, cold, wet, or windy it might be!

Date:

Astronomy

Sep. 24, 2012 Rise Set
Actual Time 7:16 AM MDT 7:19 PM MDT
Civil Twilight 6:49 AM MDT 7:46 PM MDT
Nautical Twilight 6:18 AM MDT 8:18 PM MDT
Astronomical Twilight 5:45 AM MDT 8:50 PM MDT
Moon 4:08 PM MDT (9/24) 1:36 AM MDT (9/24)
Length of Visible Light 12h 56m
Length of Day
12h 02m
Waxing Gibbous, 71% of the Moon is Illuminated
Sep 24
Waxing Gibbous
Sep 29
Full
Oct 8
Last Quarter
Oct 15
New
Oct 21
First Quarter

Hourly Weather History & Observations

Time (MDT) Temp. Dew Point Humidity Pressure Visibility Wind Dir Wind Speed Gust Speed Precip Events Conditions
12:15 AM 69.8 °F 46.4 °F 43% 30.09 in 10.0 mi NNE 5.8 mph - N/A   Mostly Cloudy
12:55 AM 66.2 °F 48.2 °F 52% 30.11 in 10.0 mi South 6.9 mph - N/A   Mostly Cloudy
1:15 AM 69.8 °F 44.6 °F 40% 30.09 in 10.0 mi ESE 4.6 mph - N/A   Mostly Cloudy
1:35 AM 66.2 °F 48.2 °F 52% 30.09 in 10.0 mi ENE 5.8 mph - N/A   Scattered Clouds
1:55 AM 66.2 °F 46.4 °F 49% 30.08 in 10.0 mi NW 3.5 mph - N/A   Mostly Cloudy
2:15 AM 66.2 °F 46.4 °F 49% 30.09 in 10.0 mi SSW 9.2 mph - N/A   Mostly Cloudy
2:35 AM 64.4 °F 50.0 °F 59% 30.08 in 10.0 mi ESE 6.9 mph - N/A   Mostly Cloudy
2:55 AM 64.4 °F 48.2 °F 56% 30.06 in 10.0 mi East 5.8 mph - N/A   Partly Cloudy
3:15 AM 62.6 °F 48.2 °F 59% 30.05 in 10.0 mi ENE 4.6 mph - N/A   Scattered Clouds
3:35 AM 60.8 °F 46.4 °F 59% 30.05 in 10.0 mi Calm Calm - N/A   Scattered Clouds
3:56 AM 62.6 °F 48.2 °F 59% 30.05 in 10.0 mi SW 3.5 mph - N/A   Mostly Cloudy
4:15 AM 62.6 °F 50.0 °F 63% 30.05 in 10.0 mi West 8.1 mph - N/A   Overcast
4:35 AM 62.6 °F 46.4 °F 55% 30.05 in 10.0 mi SSW 10.4 mph - N/A   Mostly Cloudy
4:55 AM 62.6 °F 53.6 °F 72% 30.05 in 10.0 mi SW 9.2 mph - N/A   Mostly Cloudy
5:15 AM 62.6 °F 53.6 °F 72% 30.06 in 10.0 mi NE 6.9 mph - N/A   Overcast
5:35 AM 60.8 °F 51.8 °F 72% 30.07 in 10.0 mi North 3.5 mph - N/A   Overcast
6:15 AM 62.6 °F 51.8 °F 68% 30.09 in 10.0 mi WNW 9.2 mph - N/A   Mostly Cloudy
6:35 AM 62.6 °F 50.0 °F 63% 30.10 in 10.0 mi NW 13.8 mph - N/A   Overcast
6:57 AM 62.6 °F 51.8 °F 68% 30.11 in 15.0 mi East 5.8 mph - N/A   Mostly Cloudy
7:50 AM 60.8 °F 51.8 °F 72% 30.13 in 15.0 mi Calm Calm - N/A   Overcast
8:50 AM 60.8 °F 48.2 °F 63% 30.14 in 15.0 mi Variable 3.5 mph - N/A   Overcast
9:47 AM 62.6 °F 48.2 °F 59% 30.15 in 15.0 mi WNW 10.4 mph - N/A   Overcast
10:53 AM 64.4 °F 48.2 °F 56% 30.15 in 15.0 mi WNW 13.8 mph 21.9 mph N/A   Overcast
11:50 AM 64.4 °F 48.2 °F 56% 30.14 in 15.0 mi WNW 10.4 mph - N/A   Overcast
12:50 PM 64.4 °F 46.4 °F 52% 30.13 in 15.0 mi NW 11.5 mph - N/A   Overcast
1:50 PM 64.4 °F 44.6 °F 49% 30.10 in 15.0 mi West 8.1 mph - N/A   Overcast
2:47 PM 66.2 °F 44.6 °F 46% 30.07 in 15.0 mi WNW 9.2 mph - N/A   Mostly Cloudy
3:56 PM 66.2 °F 44.6 °F 46% 30.05 in 15.0 mi WNW 5.8 mph - N/A   Mostly Cloudy
4:47 PM 66.2 °F 44.6 °F 46% 30.04 in 15.0 mi West 5.8 mph - N/A   Mostly Cloudy
5:50 PM 64.4 °F 46.4 °F 52% 30.03 in 15.0 mi WNW 9.2 mph - N/A   Mostly Cloudy
6:50 PM 59.0 °F 48.2 °F 67% 30.05 in 15.0 mi Variable 5.8 mph - N/A   Mostly Cloudy
7:50 PM 59.0 °F 51.8 °F 77% 30.04 in 15.0 mi Variable 4.6 mph - N/A   Mostly Cloudy
8:50 PM 57.2 °F 51.8 °F 82% 30.05 in 15.0 mi North - - N/A   Mostly Cloudy
9:15 PM 57.2 °F 51.8 °F 82% 30.05 in 10.0 mi SSW 9.2 mph - N/A   Partly Cloudy
9:35 PM 60.8 °F 48.2 °F 63% 30.05 in 10.0 mi WNW 9.2 mph - N/A   Mostly Cloudy
9:55 PM 60.8 °F 46.4 °F 59% 30.05 in 10.0 mi West 8.1 mph - N/A   Mostly Cloudy
10:35 PM 57.2 °F 51.8 °F 82% 30.07 in 10.0 mi SSE 8.1 mph - N/A   Overcast
11:15 PM 57.2 °F 48.2 °F 72% 30.08 in 10.0 mi SW 13.8 mph - N/A   Overcast
11:35 PM 55.4 °F 48.2 °F 77% 30.09 in 10.0 mi South 13.8 mph 20.7 mph N/A   Overcast
11:55 PM 53.6 °F 48.2 °F 82% 30.10 in 10.0 mi SSE 15.0 mph 19.6 mph N/A   Overcast